466  
ASUS42 KTAE 021516  
RWRTAE  
RWRTAE  
NORTH FLORIDA/SOUTH ALABAMA/SOUTHWEST GEORGIA WEATHER ROUNDUP  
NATIONAL WEATHER SERVICE TALLAHASSEE FLORIDA  
1100 AM EDT THU JUL 02 2020  
 
NOTE: "FAIR" INDICATES FEW OR NO CLOUDS BELOW 12,000 FEET WITH NO  
SIGNIFICANT WEATHER AND/OR S TO VISIBILITY
.  
 
!FLZ017-115-028-034-025-021600   
..NORTH FLORIDA
 
 
 
CITY SKY/WX TMP DP RH WIND PRES REMARKS
 
TALL INTL ARPT MOSUNNY 86 69 56 W12 29.96R HX 90  
FSU LOVE BLDG N/A N/A N/A N/A MISG N/A  
APALACHICOLA MOSUNNY 88 74 63 W13 29.96R HX 96  
PERRY NOT AVBL  
CROSS CITY SUNNY 89 73 60 W12G17 29.96R HX 96  
JACKSONVILLE PTSUNNY 86 75 69 W10 29.91F HX 95  

 
 
!FLZ112-006-005-002-011-021600   
..FLORIDA PANHANDLE
 
 
 
CITY SKY/WX TMP DP RH WIND PRES REMARKS
 
MARIANNA MOSUNNY 82 71 69 NW9 29.96R  
BONIFAY FAIR 82 71 69 VRB3 29.98S  
PANAMA CITY NW FAIR 87 68 52 W12 29.97S HX 90  
TYNDALL AFB PTSUNNY 83 74 75 N16 29.97 HX 90  
TYND DRONE APT PTSUNNY 82 75 79 W9 29.97S  
DE FUNIAK SPR FAIR 81 69 66 NW6 29.99S  
EGLIN AFB CLOUDY 79 70 73 N5 29.99  
DESTIN CLOUDY 82 69 64 NW8 29.99S  
HURLBURT CLOUDY 80 68 66 N9 29.99  
CRESTVIEW PTSUNNY 79 70 74 NW12 29.99F  
PENSACOLA PTSUNNY 81 69 67 N7 30.00S  

 
 
!ALZ063-066-021600   
..SOUTH ALABAMA
 
 
 
CITY SKY/WX TMP DP RH WIND PRES REMARKS
 
DOTHAN PTSUNNY 82 71 69 NW8 30.00R  
OZARK CAIRNS PTSUNNY 79 72 78 W6 29.98  
FT RUCKER HELI MOSUNNY N/A N/A N/A W7 29.97R  
RUCKER HELI 3 PTSUNNY 78 70 76 NW9 29.97  
RUCKER HELI 2 FAIR 80 71 73 NW7 29.96R  
FLORALA APT NOT AVBL  
ANDALUSIA MOSUNNY 85 69 58 NW5 29.98  
TROY CLOUDY 77 69 76 NW8 29.99R  
EUFALA NOT AVBL  
MOBILE CLOUDY 78 74 87 NW5 30.02R  

 
 
!GAZ120>161-021600   
..SOUTHWEST AND SOUTH CENTRAL GEORGIA
 
 
 
CITY SKY/WX TMP DP RH WIND PRES REMARKS
 
THOMASVILLE FAIR 79 72 78 NW6 29.97R  
BAINBRIDGE MOSUNNY 83 72 69 W9 29.97R  
MOODY AFB SUNNY 83 72 70 W7 29.94  
VALDOSTA MOSUNNY 86 72 62 VRB7 29.94S HX 92  
MOULTRIE MOSUNNY 82 72 69 W6 29.95S  
BLAKELY SUNNY 77 64 65 W3 29.97R  
ALBANY MOSUNNY 83 73 72 W5 29.96S  
TIFTON FAIR 81 72 76 CALM 29.94  
FITZGERALD FAIR 84 74 71 W3 29.96F HX 91  
CORDELE FAIR 80 71 73 CALM 29.95S  
AMERICUS FAIR 81 72 74 CALM 29.96S  
HOMERVILLE FAIR N/A N/A N/A NW6 29.94F  

 
 
!GMZ750-755-770-775-021600   
..COASTAL AND BUOY OBS
 
 
 
STATION/POSITION TIME TEMP WIND PRES VSBY WAVE
 
AIR SEA DIR/SP/G HT/PER  
(UTC) (F) (DEG/KT/KT) (MB) (MI) (FT/S)  
KEATON BEACH 1500 84 280/ 8/ 10 1014.6R  
CEDAR KEY 1500 83 310/ 2/ 4 1015.0R  
C TOWER 1500 83 300/ 9/ 9 1015.3R  
APALACHICOLA BUO 1450 260/ 12/ 14 1016.0R 2/ 4  
PANAMA CITY BUOY 1500 340/ 27/ 37 1016.5  
MOBILE BUOY 1500 79 80/ 16/ 17 1017.2  
ORANGE BCH AL BU 1500 81 230/ 12/ 16 1016.1  

 
 
 
CLICK HERE TO GO TO PREVIOUS BULLETINS.

The Nexlab FL Page
The Nexlab GA Page
The Nexlab AL Page Main Text Page